| time (UTC) | temp F | wind direction | speed MPH | gust MPH | rain 1hr in | rain 24hr in | rain mn in | humidity % | barometer mb |
| 20260502123022 | 77 | 145 | 3.0 | 7.0 | 0.00 | 0.00 | 0.00 | 41 | 1017.2 |
| 20260502122020 | 77 | 114 | 4.0 | 8.0 | 0.00 | 0.00 | 0.00 | 41 | 1017.4 |
| 20260502121018 | 77 | 82 | 4.0 | 7.0 | 0.00 | 0.00 | 0.00 | 41 | 1017.5 |
| 20260502115054 | 77 | 343 | 3.0 | 9.0 | 0.00 | 0.00 | 0.00 | 41 | 1017.6 |
| 20260502114031 | 76 | 127 | 3.0 | 5.0 | 0.00 | 0.00 | 0.00 | 40 | 1017.8 |
| 20260502113109 | 77 | 200 | 3.0 | 7.0 | 0.00 | 0.00 | 0.00 | 40 | 1017.8 |
| 20260502112027 | 76 | 311 | 3.0 | 6.0 | 0.00 | 0.00 | 0.00 | 40 | 1018.0 |
| 20260502111025 | 75 | 270 | 3.0 | 6.0 | 0.00 | 0.00 | 0.00 | 42 | 1018.1 |
| 20260502105040 | 74 | 140 | 3.0 | 10.0 | 0.00 | 0.00 | 0.00 | 41 | 1018.2 |
| 20260502104018 | 74 | 163 | 3.0 | 6.0 | 0.00 | 0.00 | 0.00 | 41 | 1018.3 |
| 20260502103016 | 75 | 33 | 4.0 | 9.0 | 0.00 | 0.00 | 0.00 | 41 | 1018.4 |
| 20260502102034 | 74 | 264 | 2.0 | 6.0 | 0.00 | 0.00 | 0.00 | 41 | 1018.5 |
| 20260502101032 | 74 | 122 | 3.0 | 6.0 | 0.00 | 0.00 | 0.00 | 40 | 1018.5 |
| 20260502091019 | 71 | 47 | 3.0 | 6.0 | 0.00 | 0.00 | 0.00 | 42 | 1019.0 |
| 20260502071033 | 66 | 235 | 2.0 | 4.0 | 0.00 | 0.00 | 0.00 | 43 | 1019.0 |
| 20260502070031 | 64 | 245 | 2.0 | 4.0 | 0.00 | 0.00 | 0.00 | 46 | 1019.1 |
| 20260502065029 | 63 | 267 | 2.0 | 4.0 | 0.00 | 0.00 | 0.00 | 47 | 1019.2 |
| 20260502064027 | 63 | 225 | 1.0 | 4.0 | 0.00 | 0.00 | 0.00 | 48 | 1019.2 |
| 20260502063024 | 62 | 329 | 1.0 | 5.0 | 0.00 | 0.00 | 0.00 | 50 | 1019.3 |
| 20260502062022 | 60 | 296 | 1.0 | 3.0 | 0.00 | 0.00 | 0.00 | 51 | 1019.2 |
| 20260502061020 | 59 | 230 | 2.0 | 3.0 | 0.00 | 0.00 | 0.00 | 53 | 1019.1 |
| 20260502060018 | 58 | 236 | 1.0 | 3.0 | 0.00 | 0.00 | 0.00 | 55 | 1019.1 |
| 20260502055016 | 54 | 229 | 1.0 | 3.0 | 0.00 | 0.00 | 0.00 | 63 | 1019.3 |
| 20260502054034 | 53 | 221 | 2.0 | 3.0 | 0.00 | 0.00 | 0.00 | 69 | 1019.3 |
| 20260502053031 | 51 | 224 | 2.0 | 3.0 | 0.00 | 0.00 | 0.00 | 71 | 1019.3 |
| 20260502052029 | 50 | 213 | 2.0 | 3.0 | 0.00 | 0.00 | 0.00 | 73 | 1019.2 |
| 20260502051027 | 49 | 220 | 2.0 | 4.0 | 0.00 | 0.00 | 0.00 | 78 | 1019.1 |
| 20260502050025 | 48 | 212 | 2.0 | 4.0 | 0.00 | 0.00 | 0.00 | 79 | 1019.2 |
| 20260502045023 | 47 | 206 | 2.0 | 3.0 | 0.00 | 0.00 | 0.00 | 79 | 1019.2 |
| 20260502044021 | 47 | 221 | 3.0 | 5.0 | 0.00 | 0.00 | 0.00 | 80 | 1019.3 |
| 20260502043019 | 47 | 212 | 2.0 | 4.0 | 0.00 | 0.00 | 0.00 | 79 | 1019.3 |
| 20260502042017 | 47 | 222 | 2.0 | 5.0 | 0.00 | 0.00 | 0.00 | 78 | 1019.4 |
| 20260502041055 | 48 | 205 | 2.0 | 3.0 | 0.00 | 0.00 | 0.00 | 77 | 1019.5 |
| 20260502040052 | 48 | 211 | 2.0 | 4.0 | 0.00 | 0.00 | 0.00 | 75 | 1019.5 |
| 20260502035030 | 49 | 206 | 2.0 | 4.0 | 0.00 | 0.00 | 0.00 | 75 | 1019.6 |
| 20260502034108 | 49 | 225 | 2.0 | 4.0 | 0.00 | 0.00 | 0.00 | 73 | 1019.7 |
| 20260502033026 | 50 | 210 | 2.0 | 4.0 | 0.00 | 0.00 | 0.00 | 72 | 1019.6 |
| 20260502032023 | 51 | 208 | 2.0 | 4.0 | 0.00 | 0.00 | 0.00 | 69 | 1019.6 |
| 20260502031022 | 52 | 207 | 3.0 | 5.0 | 0.00 | 0.00 | 0.00 | 67 | 1019.7 |
| 20260502030019 | 52 | 216 | 2.0 | 4.0 | 0.00 | 0.00 | 0.00 | 67 | 1019.9 |
| 20260502025017 | 52 | 218 | 3.0 | 5.0 | 0.00 | 0.00 | 0.00 | 66 | 1019.9 |
| 20260502024035 | 52 | 220 | 3.0 | 5.0 | 0.00 | 0.00 | 0.00 | 65 | 1020.0 |
| 20260502023053 | 51 | 210 | 3.0 | 5.0 | 0.00 | 0.00 | 0.00 | 67 | 1019.9 |
| 20260502022031 | 51 | 213 | 2.0 | 5.0 | 0.00 | 0.00 | 0.00 | 67 | 1020.0 |
| 20260502021048 | 51 | 219 | 2.0 | 5.0 | 0.00 | 0.00 | 0.00 | 70 | 1020.1 |
| 20260502020026 | 50 | 223 | 3.0 | 6.0 | 0.00 | 0.00 | 0.00 | 71 | 1020.2 |
| 20260502015024 | 49 | 207 | 3.0 | 4.0 | 0.00 | 0.00 | 0.00 | 74 | 1020.3 |
| 20260502014022 | 49 | 234 | 2.0 | 3.0 | 0.00 | 0.00 | 0.00 | 75 | 1020.3 |
| 20260502013020 | 49 | 215 | 2.0 | 6.0 | 0.00 | 0.00 | 0.00 | 74 | 1020.5 |
| 20260502012018 | 50 | 198 | 2.0 | 4.0 | 0.00 | 0.00 | 0.00 | 73 | 1020.6 |
| 20260502011015 | 50 | 277 | 2.0 | 4.0 | 0.00 | 0.00 | 0.00 | 71 | 1020.6 |
| 20260502010033 | 51 | 210 | 3.0 | 5.0 | 0.00 | 0.00 | 0.00 | 71 | 1020.7 |
| 20260502005112 | 50 | 245 | 1.0 | 4.0 | 0.00 | 0.00 | 0.00 | 71 | 1020.9 |
| 20260502004029 | 50 | 204 | 3.0 | 6.0 | 0.00 | 0.00 | 0.00 | 71 | 1020.9 |
| 20260502003027 | 50 | 198 | 3.0 | 5.0 | 0.00 | 0.00 | 0.00 | 71 | 1021.0 |
| 20260502002025 | 50 | 215 | 3.0 | 5.0 | 0.00 | 0.00 | 0.00 | 72 | 1021.0 |
| 20260502001023 | 51 | 233 | 2.0 | 4.0 | 0.00 | 0.00 | 0.00 | 71 | 1021.1 |
| 20260502000020 | 51 | 208 | 3.0 | 6.0 | 0.00 | 0.00 | 0.00 | 70 | 1021.3 |
| 20260501235018 | 51 | 204 | 3.0 | 6.0 | 0.00 | 0.00 | 0.00 | 70 | 1021.4 |
| 20260501234036 | 51 | 221 | 2.0 | 3.0 | 0.00 | 0.00 | 0.00 | 70 | 1021.4 |
| 20260501233034 | 52 | 221 | 2.0 | 4.0 | 0.00 | 0.00 | 0.00 | 69 | 1021.4 |
| 20260501232032 | 52 | 220 | 2.0 | 4.0 | 0.00 | 0.00 | 0.00 | 69 | 1021.4 |
| 20260501231030 | 52 | 218 | 2.0 | 3.0 | 0.00 | 0.00 | 0.00 | 68 | 1021.6 |
| 20260501230027 | 52 | 223 | 2.0 | 3.0 | 0.00 | 0.00 | 0.00 | 68 | 1021.4 |
| 20260501225026 | 52 | 216 | 2.0 | 3.0 | 0.00 | 0.00 | 0.00 | 68 | 1021.5 |
| 20260501224023 | 53 | 220 | 2.0 | 3.0 | 0.00 | 0.00 | 0.00 | 67 | 1021.5 |
| 20260501223021 | 53 | 215 | 2.0 | 3.0 | 0.00 | 0.00 | 0.00 | 65 | 1021.6 |
| 20260501222019 | 54 | 218 | 2.0 | 2.0 | 0.00 | 0.00 | 0.00 | 64 | 1021.7 |
| 20260501221017 | 54 | 222 | 3.0 | 3.0 | 0.00 | 0.00 | 0.00 | 63 | 1021.8 |
| 20260501220035 | 54 | 223 | 3.0 | 4.0 | 0.00 | 0.00 | 0.00 | 62 | 1021.8 |
| 20260501215032 | 55 | 217 | 2.0 | 3.0 | 0.00 | 0.00 | 0.00 | 62 | 1021.8 |
| 20260501214051 | 56 | 220 | 2.0 | 3.0 | 0.00 | 0.00 | 0.00 | 61 | 1021.8 |
| 20260501213028 | 56 | 224 | 2.0 | 4.0 | 0.00 | 0.00 | 0.00 | 59 | 1021.7 |
| 20260501212106 | 57 | 222 | 2.0 | 3.0 | 0.00 | 0.00 | 0.00 | 57 | 1021.7 |
| 20260501211024 | 57 | 219 | 2.0 | 3.0 | 0.00 | 0.00 | 0.00 | 56 | 1021.8 |
| 20260501210022 | 58 | 223 | 3.0 | 3.0 | 0.00 | 0.00 | 0.00 | 54 | 1021.9 |
| 20260501205020 | 59 | 222 | 2.0 | 3.0 | 0.00 | 0.00 | 0.00 | 52 | 1021.8 |
| 20260501204038 | 60 | 219 | 2.0 | 3.0 | 0.00 | 0.00 | 0.00 | 50 | 1021.9 |
| 20260501203015 | 61 | 225 | 2.0 | 4.0 | 0.00 | 0.00 | 0.00 | 47 | 1022.0 |
| 20260501202033 | 62 | 231 | 3.0 | 4.0 | 0.00 | 0.00 | 0.00 | 45 | 1021.9 |
| 20260501201031 | 63 | 225 | 3.0 | 4.0 | 0.00 | 0.00 | 0.00 | 42 | 1021.9 |
| 20260501200029 | 64 | 223 | 3.0 | 4.0 | 0.00 | 0.00 | 0.00 | 39 | 1021.9 |
| 20260501195027 | 65 | 227 | 3.0 | 4.0 | 0.00 | 0.00 | 0.00 | 37 | 1021.9 |
| 20260501194024 | 66 | 224 | 2.0 | 4.0 | 0.00 | 0.00 | 0.00 | 36 | 1021.8 |
| 20260501193022 | 67 | 222 | 3.0 | 4.0 | 0.00 | 0.00 | 0.00 | 35 | 1021.8 |
| 20260501192020 | 68 | 225 | 3.0 | 4.0 | 0.00 | 0.00 | 0.00 | 33 | 1021.9 |
| 20260501191018 | 69 | 224 | 3.0 | 4.0 | 0.00 | 0.00 | 0.00 | 32 | 1021.9 |
| 20260501190016 | 70 | 227 | 2.0 | 4.0 | 0.00 | 0.00 | 0.00 | 30 | 1021.8 |
| 20260501185034 | 71 | 223 | 3.0 | 4.0 | 0.00 | 0.00 | 0.00 | 29 | 1021.8 |
| 20260501184031 | 72 | 235 | 2.0 | 4.0 | 0.00 | 0.00 | 0.00 | 28 | 1021.8 |
| 20260501183029 | 73 | 244 | 2.0 | 5.0 | 0.00 | 0.00 | 0.00 | 27 | 1021.8 |
| 20260501182027 | 74 | 233 | 3.0 | 5.0 | 0.00 | 0.00 | 0.00 | 26 | 1021.8 |
| 20260501181025 | 74 | 264 | 2.0 | 6.0 | 0.00 | 0.00 | 0.00 | 25 | 1021.8 |
| 20260501180023 | 74 | 279 | 2.0 | 5.0 | 0.00 | 0.00 | 0.00 | 25 | 1021.7 |
| 20260501175021 | 75 | 316 | 2.0 | 6.0 | 0.00 | 0.00 | 0.00 | 24 | 1021.7 |
| 20260501174019 | 76 | 316 | 3.0 | 7.0 | 0.00 | 0.00 | 0.00 | 24 | 1021.7 |
| 20260501173017 | 77 | 235 | 2.0 | 5.0 | 0.00 | 0.00 | 0.00 | 24 | 1021.6 |
| 20260501172035 | 76 | 230 | 3.0 | 7.0 | 0.00 | 0.00 | 0.00 | 24 | 1021.7 |
| 20260501171032 | 78 | 252 | 3.0 | 5.0 | 0.00 | 0.00 | 0.00 | 23 | 1021.7 |
| 20260501170030 | 77 | 272 | 2.0 | 6.0 | 0.00 | 0.00 | 0.00 | 23 | 1021.7 |
| 20260501165028 | 78 | 17 | 3.0 | 8.0 | 0.00 | 0.00 | 0.00 | 22 | 1021.7 |
| 20260501164026 | 77 | 229 | 4.0 | 7.0 | 0.00 | 0.00 | 0.00 | 23 | 1021.7 |
| 20260501163044 | 78 | 342 | 2.0 | 6.0 | 0.00 | 0.00 | 0.00 | 22 | 1021.8 |
| 20260501162021 | 77 | 218 | 4.0 | 8.0 | 0.00 | 0.00 | 0.00 | 22 | 1021.9 |
| 20260501161019 | 77 | 263 | 3.0 | 7.0 | 0.00 | 0.00 | 0.00 | 22 | 1022.0 |
| 20260501160017 | 77 | 226 | 3.0 | 6.0 | 0.00 | 0.00 | 0.00 | 23 | 1022.1 |
| 20260501155035 | 77 | 249 | 3.0 | 6.0 | 0.00 | 0.00 | 0.00 | 23 | 1022.2 |
| 20260501154033 | 78 | 285 | 3.0 | 6.0 | 0.00 | 0.00 | 0.00 | 22 | 1022.2 |
| 20260501153030 | 78 | 235 | 4.0 | 8.0 | 0.00 | 0.00 | 0.00 | 21 | 1022.3 |
| 20260501152029 | 78 | 339 | 4.0 | 11.0 | 0.00 | 0.00 | 0.00 | 21 | 1022.3 |
| 20260501151026 | 78 | 234 | 3.0 | 7.0 | 0.00 | 0.00 | 0.00 | 21 | 1022.4 |
| 20260501150044 | 78 | 254 | 3.0 | 6.0 | 0.00 | 0.00 | 0.00 | 21 | 1022.6 |